Weather Roundup
Issued by NWS Chicago, IL

Home | Current Version | Previous Version | Text Only | Print | Product List | Glossary Off
Versions: 1 2 3 4 5 6 7 8 9 10 11 12 13 14 15 16 17 18 19 20 21 22 23 24 25 26 27 28 29 30 31 32 33 34 35 36 37 38 39 40 41 42 43 44 45 46 47 48 49 50

000
NZUS59 KLOT 272303
HRRLOT

CHICAGO AREA WEATHER ROUNDUP
NATIONAL WEATHER SERVICE CHICAGO/ROMEOVILLE IL
500 PM CST MON FEB 27 2017

NOTE: "FAIR" INDICATES FEW OR NO CLOUDS BELOW 12,000 FEET WITH NO
SIGNIFICANT WEATHER AND/OR OBSTRUCTIONS TO VISIBILITY.

* THESE STATIONS ARE NOT UNDER NWS QUALITY CONTROL. THEY ALSO MAY NOT
  REPORT WEATHER SUCH AS PRECIPITATION OR FOG.

ILZ005-006-012>014-019>023-280000-
NORTHEAST ILLINOIS

CITY           SKY/WX    TMP DP  RH WIND       PRES   REMARKS
OHARE          CLOUDY    51  32  48 S6        30.06F
MIDWAY         MOCLDY    54  31  41 S6        30.07S
AURORA         PTCLDY    52  34  50 S7        30.04F
LANSING*       MOCLDY    51  37  57 S3        30.09R
JOLIET*        CLEAR     54  34  45 S5        30.06F
WAUKEGAN       MOCLDY    41  34  76 SE6       30.07F
DUPAGE AIRPORT PTCLDY    51  31  46 SE7       30.04F
WHEELING       CLOUDY    50  31  48 S7        30.08S
KANKAKEE*      MOCLDY    54  35  48 SE10      30.08R
MORRIS*        CLEAR     53  33  47 S7        30.04F
LEWIS AIRPORT* MOCLDY    51  37  59 SE5       30.06F
NORTHERLY ISL    N/A     40  34  79 CALM        N/A
$$

WIZ051-052-058>065-066-070>072-280000-
SOUTHEAST WISCONSIN

CITY           SKY/WX    TMP DP  RH WIND       PRES   REMARKS
MILWAUKEE      MOCLDY    46  33  60 S10       30.06F
KENOSHA*       CLEAR     44  33  65 SE13      30.07F
RACINE*        CLEAR     42  33  70 S15       30.09F
WAUKESHA       PTCLDY    45  30  57 S14       30.05F
WEST BEND      CLOUDY    43  32  65 SE5       30.04F
$$

INZ001>003-010>013-019-020-280000-
NORTHWEST INDIANA

CITY           SKY/WX    TMP DP  RH WIND       PRES   REMARKS
GARY*          MOCLDY    55  28  35 S6        30.09S
MICHIGAN CITY* NOT AVBL
RENSSELAER*    NOT AVBL
VALPARAISO     PTCLDY    52  35  52 SE7       30.10F
$$

LMZ740>746-280000-
SOUTHERN LAKE MICHIGAN

STATION/POSITION TIME  SKY/WX   TEMP WIND        PRES    VSBY
                                AIR  DIR/SP/G
                 (UTC)          (F)  (DEG/KT/KT) (MB)    (MI)
HARRISON CRIB    2240            41  100/ 11/ 12   N/A
BURNHAM HARBOR   2300            40   70/  2/  5   N/A
CALUMET HARBOR   2230            41   50/  7/  9 1018.2R
BURNS HARBOR     2240            52  180/  8/ 15 1019.6S
MICHIGAN CITY    2240            51  130/ 13/ 15   N/A
$$

ABBREVIATIONS USED IN REMARKS
   TC - TEMPERATURE IN CELSIUS
  WCI - WIND CHILL INDEX
   HX - HEAT INDEX
  VSB - VISIBILITY
$$




USA.gov is the U.S. government's official web portal to all federal, state and local government web resources and services.